STARLINK-34371, 64756

Orbit data source: Space-Track

STARLINK-34371, 64756 is a payload satellite owned by SpaceX/Seattle (US) in LEO that was launched on Tue, 08 Jul 2025 UTC via an FALCON 9 launch vehicle from the Air Force Eastern Test Range (AFETR). Payload-class satellites include a variety of spacecraft equipped with specific instruments for various scientific and technological missions. These include communications satellites like Starlink; space stations such as the ISS; scientific satellites like the Hubble; Earth observation satellites from companies like Planet Labs, Umbra, and HawkEye 360; GPS; miniature CubeSats for education and research; and military/defense satellites.

Loading next visibility...
Identifier
64756, 2025-147B
Orbit
LEO
Country
Flag of USUS
Related business
Manufacturer
SpaceX/Seattle
Mission
Operational Commercial Communications
Bus & Motor
STARLINK V2MO, Unknown motor
Mass
575 kg wet, ~530 kg dry
Launch date (UTC)
2025-07-08 (1 year ago)
Launch vehicle
FALCON 9
Launch site
Air Force Eastern Test Range (AFETR)
Object type
Payload
Rocket body
Debris
Shape & HBR
Box + 1 Pan, 17.7 m
Radar Cross Section
41.120 m², Large (>1 m²)

Expand to show TLE details & history
Last TLE update: 11 hours ago

TLE from 11 hours ago
0 STARLINK-34371
1 64756U 25147B   26255.25277066  .00012151  00000-0  40238-3 0  9992
2 64756  53.1574  94.8920 0001043  91.5176 268.5945 15.31723821 67289
Epoch: 2026-09-12T06:03Z
TLE epoch observation values (Epoch: 2026-09-12T06:03:59.385Z)
Latitude
0.00001°
Longitude
12.63014°
Altitude
471.587 km
Speed
7.631 km/s
True Right ascension
06h 19m 34s
True Declination
0° 00' 00"
Sunlit
Object was in daylight at epoch
Visualization orbit readout
Latitude
Unknown
Longitude
Unknown
Altitude
Unknown
Speed
Unknown
Apparent Right ascension
Unknown
Apparent Declination
Unknown
Sunlit
N/A
Visualization observer readout
Local Sidereal Time
09:28:59
Azimuth
Unknown
Elevation
Unknown
Doppler factor
Unknown
Orbital elements
Apogee altitude
471.64 km
Perigee altitude
470.212 km
Semi-major axis
6,849.063 km
Eccentricity
0.0001
Inclination
53.1574°
RAAN
94.892°
Arg. of periapsis
91.5176°
True anomaly
268.58255°
Mean anomaly
268.5945°
Eccentric anomaly
268.58853°
Mean motion
3.8291 °/min
Orbital period
94.02 mins
BSTAR
0.00040238
Loading maneuver chart data...
Computing Atmospheric mass density...
Loading historical data...
Loading historical data...
Loading historical data...
Loading historical data...
Loading historical data...
Loading historical data...
Loading historical data...

Documentation

Showing up to 5 results
|